#timestamp,LO_Frequency,Hit,StdDev 
1607553435.1,286046978.6,P
1607553436.0,286046978.6,P
1607553455.8,286046974.4,P
1607553475.7,286046970.1,Y
1607553495.5,286046992.1,P
1607553515.3,286046992.5,N
1607553535.2,286046990.7,N
1607553555.0,286046991.3,N
1607553555.9,286046991.3,N
1607553575.8,286046989.8,N
1607553595.6,286046988.7,N
1607553615.4,286046989.8,N
1607553635.3,286046990.5,N
1607553655.1,286046994.3,N
1607553675.8,286046994.6,N
1607553695.7,286046994.3,N
1607553715.5,286046991.9,N
1607553735.4,286046993.7,N
1607553755.2,286046993.8,N
1607553775.0,286046993.6,N
1607553775.9,286046993.6,N
1607553795.8,286046986.3,Y
1607553815.6,286046998.2,P
1607553835.4,286047001.0,N
1607553855.3,286046999.1,N
1607553875.1,286046997.9,N
1607553895.9,286046993.5,N
1607553915.7,286046996.3,N
1607553935.5,286046995.0,N
1607553955.4,286046993.6,N
1607553975.2,286046995.9,N
1607553995.0,286046993.5,N
1607553995.9,286046993.5,N
1607554015.8,286046994.3,N
1607554035.6,286046993.9,N
1607554055.5,286046993.8,N
1607554075.3,286046993.4,N
1607554095.1,286046991.8,Y
1607554115.9,286046997.3,P
1607554135.7,286046997.2,N
1607554155.5,286046995.6,P
1607554175.4,286046995.7,Y
1607554195.2,286047000.2,P
1607554215.1,286047000.5,N
1607554216.0,286047000.5,N
1607554235.8,286046998.5,N
1607554255.6,286046997.0,N
1607554275.5,286046998.7,N
1607554295.3,286046998.6,N
1607554315.1,286047000.9,N
1607554335.9,286047003.5,N
1607554355.7,286047007.3,Y
1607554375.6,286047004.7,P
1607554395.4,286047005.7,N
1607554415.2,286047003.6,N
1607554435.1,286047005.6,N
1607554436.0,286047005.6,N
1607554455.8,286047001.7,N
1607554475.7,286047003.8,N
1607554495.5,286047002.9,N
1607554515.3,286047004.1,N
1607554535.2,286047001.5,N
1607554555.9,286047001.3,N
1607554575.7,286047003.9,N
1607554595.6,286047001.8,N
1607554615.4,286047004.0,N
1607554635.2,286047002.6,N
1607554655.1,286047002.7,N
1607554656.0,286047002.7,N
1607554675.8,286047002.4,N
1607554695.7,286047000.2,N
1607554715.5,286047002.5,N
1607554735.3,286047002.1,N
1607554755.2,286046999.9,N
1607554775.0,286047000.9,N
1607554775.9,286047000.9,N
1607554795.8,286047002.8,N
